TimeCDT,TemperatureF,Dew PointF,Humidity,Sea Level PressureIn,VisibilityMPH,Wind Direction,Wind SpeedMPH,Gust SpeedMPH,PrecipitationIn,Events,Conditions,WindDirDegrees,DateUTC
12:52 AM,60.1,55.9,86,29.82,10.0,Calm,Calm,-,0.01,Rain,Light Rain,0,2013-06-04 05:52:00
1:52 AM,57.9,54.0,87,29.83,10.0,Calm,Calm,-,0.00,,Mostly Cloudy,0,2013-06-04 06:52:00
2:52 AM,59.0,50.0,72,29.82,10.0,NNW,11.5,-,N/A,,Mostly Cloudy,340,2013-06-04 07:52:00
3:52 AM,59.0,46.9,64,29.84,10.0,NNW,17.3,25.3,N/A,,Overcast,340,2013-06-04 08:52:00
4:52 AM,55.9,45.0,67,29.86,10.0,NNW,18.4,25.3,N/A,,Partly Cloudy,340,2013-06-04 09:52:00
5:52 AM,55.0,43.0,64,29.87,10.0,NNW,17.3,23.0,N/A,,Clear,340,2013-06-04 10:52:00
6:52 AM,54.0,42.1,64,29.91,10.0,NW,13.8,-,N/A,,Partly Cloudy,310,2013-06-04 11:52:00
7:52 AM,55.9,41.0,57,29.93,10.0,NW,15.0,28.8,N/A,,Clear,320,2013-06-04 12:52:00
8:52 AM,59.0,42.1,53,29.94,10.0,NNW,16.1,28.8,N/A,,Clear,330,2013-06-04 13:52:00
9:52 AM,62.1,43.0,50,29.96,10.0,NNW,16.1,25.3,N/A,,Clear,340,2013-06-04 14:52:00
10:52 AM,64.0,44.1,48,29.97,10.0,NNW,13.8,21.9,N/A,,Clear,340,2013-06-04 15:52:00
11:52 AM,66.9,44.1,44,29.97,10.0,NW,9.2,-,N/A,,Scattered Clouds,320,2013-06-04 16:52:00
12:52 PM,69.1,45.0,42,29.97,10.0,North,10.4,18.4,N/A,,Clear,360,2013-06-04 17:52:00
1:52 PM,71.1,45.0,39,29.97,10.0,NW,9.2,19.6,N/A,,Clear,320,2013-06-04 18:52:00
2:52 PM,71.1,45.0,39,29.98,10.0,NNE,11.5,-,N/A,,Clear,30,2013-06-04 19:52:00
3:52 PM,71.1,44.1,38,29.98,10.0,North,12.7,-,N/A,,Clear,360,2013-06-04 20:52:00
4:52 PM,70.0,45.0,41,29.99,10.0,North,8.1,17.3,N/A,,Partly Cloudy,350,2013-06-04 21:52:00
5:52 PM,69.1,45.0,42,30.01,10.0,North,11.5,24.2,N/A,,Clear,350,2013-06-04 22:52:00
6:52 PM,68.0,45.0,43,30.01,10.0,North,13.8,-,N/A,,Clear,350,2013-06-04 23:52:00
7:52 PM,64.0,45.0,50,30.05,10.0,North,12.7,20.7,N/A,,Clear,360,2013-06-05 00:52:00
8:52 PM,60.1,44.1,55,30.07,10.0,North,15.0,24.2,N/A,,Mostly Cloudy,350,2013-06-05 01:52:00
9:52 PM,57.9,44.1,60,30.09,10.0,North,9.2,-,N/A,,Mostly Cloudy,10,2013-06-05 02:52:00
10:52 PM,55.9,43.0,62,30.16,10.0,NNW,9.2,-,N/A,,Mostly Cloudy,340,2013-06-05 03:52:00
11:52 PM,54.0,43.0,66,30.16,10.0,NNW,9.2,-,N/A,,Overcast,330,2013-06-05 04:52:00